{"data":{"norad_id":62074,"epoch":"2026-05-25T04:16:33.678048Z","epoch_age_seconds":55503,"freshness":"FRESH","line1":"1 62074U 24217T   26145.17816757  .00018089  00000+0  54507-3 0  9994","line2":"2 62074  53.1585 198.5052 0001210  78.8978 281.2161 15.34408795 85133","mean_motion":15.34408795,"eccentricity":0.000121,"inclination_deg":53.1585,"raan_deg":198.5052,"arg_perigee_deg":78.8978,"mean_anomaly_deg":281.2161,"bstar":0.00054507,"rev_number":8513,"period_min":93.847220160127,"perigee_km":461.84936123244,"apogee_km":463.50483824457,"semimajor_km":6840.8140997385,"source":"CELESTRAK","updated_at":"2026-05-25T13:38:19.555841Z"}}